Location: Unspecified
(0.0000°N, 0.0000°E)
Time: 16:59:50
(UTC+00:00)

Vanguard 3 - Pass Details

Date: 02 February 2023
Orbit: 509 x 3249 km, 33.3° (Epoch: 20 March)

Event Time Altitude Azimuth Distance (km) Brightness Sun altitude
Rises 22:45:35 0° 323° (NW) 6,067 11.6 -62.6°
Enters shadow 22:47:01 - 326° (NNW) 5,877 11.5 -62.9°
Reaches altitude 10° 22:50:46 10° 337° (NNW) 5,455 - -63.6°
Maximum altitude 23:03:39 24° 24° (NNE) 4,979 - -66.0°
Drops below altitude 10° 23:17:53 10° 71° (ENE) 6,117 - -68.4°
Sets 23:24:06 0° 83° (E) 6,944 - -69.3°
